Location: Balsareny
(41.8670°N, 1.8830°E)
Time: 06:04:20
(UTC+02:00)

Tiangong - Pass Details

Date: 30 June 2021
Orbit: 373 x 386 km, 41.5° (Epoch: 28 July)

Event Time Altitude Azimuth Distance (km) Brightness Sun altitude
Exits shadow 04:18:34 57° 188° (S) 446 1.0 -17.1°
Drops below altitude 10° 04:21:35 10° 114° (ESE) 1,383 4.0 -16.8°
Sets 04:23:40 0° 111° (ESE) 2,236 5.1 -16.6°
